Regional Weather Roundup
Issued by NWS

Home | Current Version | Previous Version | Text Only | Print | Product List | Glossary On
Versions: 1 2 3 4 5 6 7 8 9 10 11 12 13 14 15 16 17 18 19 20 21 22 23 24 25 26 27 28 29 30 31 32 33 34 35 36 37 38 39 40 41 42 43 44 45 46 47 48 49 50
000
ASUS45 KABQ 260901
RWRNM
NEW MEXICO REGIONAL WEATHER ROUNDUP
NATIONAL WEATHER SERVICE ALBUQUERQUE NM
300 AM MDT MON JUN 26 2017

NOTE: "FAIR" MEANS FEW OR NO CLOUDS BELOW 12,000 FEET AGL WITH NO
       SIGNIFICANT WEATHER OR OBSTRUCTIONS TO VISION.

      THIS PRODUCT IS RELEASED AS TWO VERSIONS.  ONE VERSION NEAR
      THE TOP OF THE HOUR CONTAINING PRELIMINARY DATA FROM ALBUQUERQUE
      AND OTHER STATIONS.  A FINAL VERSION WITH ADDITIONAL DATA IS
      ISSUED ABOUT 10 MINUTES AFTER THE HOUR.

NMZ501-503-504-510>518-261000-
NORTHWEST PLATEAU/NORTHCENTRAL MOUNTAINS

CITY           SKY/WX    TMP DP  RH WIND       PRES   REMARKS
FARMINGTON     FAIR      67  43  41 NE8       30.18R
LOS ALAMOS     FAIR      56  49  77 S9        30.41F
SANTA FE       FAIR      60  51  72 SE13      30.36S
TAOS           FAIR      54  43  66 CALM      30.42S
ANGEL FIRE     CLOUDY    46  45  96 CALM      30.50S

$$
NMZ402-403-502-505>509-261000-
WESTCENTRAL MOUNTAINS/SOUTHWEST MOUNTAINS

CITY           SKY/WX    TMP DP  RH WIND       PRES   REMARKS
GALLUP         FAIR      58  43  57 CALM      30.29F
GRANTS         FAIR      59  50  70 S9        30.34R
SILVER CITY    FAIR      66  56  68 SW3       30.32F

$$
NMZ407-409-411-412-261000-
SOUTHERN DESERTS

CITY           SKY/WX    TMP DP  RH WIND       PRES   REMARKS
DEMING         FAIR      71  59  65 W12G23    30.24R
LAS CRUCES     LGT RAIN  70  61  73 W10       30.23R
HOLLOMAN AFB   MOCLDY    66  62  86 N9        30.21F
ALAMOGORDO     FAIR      68  59  73 NE7       30.22R
T OR C         FAIR      69  58  67 S7        30.22F

$$
NMZ519>523-261000-
CENTRAL VALLEYS/CENTRAL HIGHLANDS

CITY           SKY/WX    TMP DP  RH WIND       PRES   REMARKS
ALBUQUERQUE    MOCLDY    67  53  61 E13       30.28S
DOUBLE EAGLE   FAIR      57  47  69 CALM      30.32R
MORIARTY ARPT  FAIR      51  51 100 CALM      30.40R
CLINES CORNERS   N/A     53  53 100 SE7       30.43
BELEN          NOT AVBL
SOCORRO        FAIR      63  53  70 S7        30.24F

$$
NMZ524>526-539-540-261000-
SOUTHCENTRAL MOUNTAINS

CITY           SKY/WX    TMP DP  RH WIND       PRES   REMARKS
RUIDOSO        CLOUDY    54  54 100 SE7       30.44S

$$
NMZ527>531-261000-
NORTHEAST HIGHLANDS/NORTHEAST PLAINS

CITY           SKY/WX    TMP DP  RH WIND       PRES   REMARKS
LAS VEGAS      FAIR      51  48  89 SE7       30.42R
RATON          FAIR      53  52  96 CALM      30.37R
CLAYTON        MOCLDY    58  58 100 S10       30.33R

$$
NMZ532>537-261000-
EASTCENTRAL PLAINS

CITY           SKY/WX    TMP DP  RH WIND       PRES   REMARKS
SANTA ROSA     FAIR      57  56  94 CALM      30.32R
TUCUMCARI      FAIR      63  59  87 S7        30.27R
CANNON AFB     FAIR      59  59 100 E18       30.30S
CLOVIS AIRPORT MOCLDY    58  56  93 SE13      30.32S

$$
NMZ028-029-538-261000-
SOUTHEAST PLAINS

CITY           SKY/WX    TMP DP  RH WIND       PRES   REMARKS
ROSWELL        FAIR      66  62  87 SE7       30.25F
ARTESIA        FAIR      66  66 100 N9        30.26R
CARLSBAD       LGT RAIN  67  67 100 E14       30.18S
HOBBS          RAIN      63  63 100 NE18G28   30.29F


$$



USA.gov is the U.S. government's official web portal to all federal, state and local government web resources and services.